Weather History for Menominee, MI

Change the Weather History Date:

Saturday, February 16, 2013

  Actual Average Record
Temperature  
Mean Temperature 8 °F -  
Max Temperature 17 °F 29 °F 49 °F (1954)
Min Temperature 0 °F 11 °F -9 °F (1958)
Degree Days  
Heating Degree Days 56    
Moisture  
Dew Point 0 °F    
Average Humidity 65    
Maximum Humidity 92    
Minimum Humidity 45    
Precipitation  
Precipitation 0.00 in - - ()
Sea Level Pressure  
Sea Level Pressure 30.12 in    
Wind  
Wind Speed 5 mph (NNW)    
Max Wind Speed 12 mph    
Max Gust Speed 17 mph    
Visibility 10 miles    
Events      
Averages and records for this station are not official NWS values.
T = Trace of Precipitation, MM = Missing Value Source: NWS Daily Summary

Daily Weather History Graph

Daily Weather History Graph

Search for Another Location

Airport:

Trip Planner

Search our weather history database for the weather conditions in past years. The results will help you decide how hot, cold, wet, or windy it might be!

Date:

Astronomy

Feb. 16, 2013 Rise Set
Actual Time 6:49 AM CST 5:20 PM CST
Civil Twilight 6:19 AM CST 5:50 PM CST
Nautical Twilight 5:45 AM CST 6:24 PM CST
Astronomical Twilight 5:11 AM CST 6:58 PM CST
Moon 9:42 AM CST (2/16) No Moon Set
Length of Visible Light 11h 30m
Length of Day
10h 30m
Waxing Crescent, 39% of the Moon is Illuminated
Feb 16
Waxing Crescent
Feb 17
First Quarter
Feb 25
Full
Mar 4
Last Quarter
Mar 11
New

Hourly Weather History & Observations

Time (CST) Temp. Windchill Dew Point Humidity Pressure Visibility Wind Dir Wind Speed Gust Speed Precip Events Conditions
12:15 AM 10.4 °F 0.8 °F 3.2 °F 73% 30.14 in 10.0 mi NNW 5.8 mph - N/A   Overcast
12:35 AM 10.4 °F 2.2 °F 3.2 °F 73% 30.13 in 10.0 mi NW 4.6 mph - N/A   Overcast
12:55 AM 10.4 °F 0.8 °F 1.4 °F 67% 30.13 in 10.0 mi NW 5.8 mph - N/A   Overcast
1:15 AM 10.4 °F 2.2 °F -0.4 °F 62% 30.13 in 10.0 mi NW 4.6 mph - N/A   Overcast
1:35 AM 8.6 °F 2.0 °F -0.4 °F 67% 30.12 in 10.0 mi NW 3.5 mph - N/A   Overcast
1:55 AM 8.6 °F 0.1 °F 1.4 °F 73% 30.12 in 10.0 mi NW 4.6 mph - N/A   Overcast
2:15 AM 8.6 °F 0.1 °F -0.4 °F 67% 30.11 in 10.0 mi NW 4.6 mph - N/A   Overcast
2:35 AM 6.8 °F -0.1 °F 1.4 °F 79% 30.10 in 10.0 mi NW 3.5 mph - N/A   Mostly Cloudy
2:55 AM 6.8 °F -2.0 °F 1.4 °F 79% 30.10 in 10.0 mi NW 4.6 mph - N/A   Mostly Cloudy
3:15 AM 6.8 °F -0.1 °F 1.4 °F 79% 30.09 in 10.0 mi NW 3.5 mph - N/A   Scattered Clouds
3:35 AM 6.8 °F -0.1 °F 1.4 °F 79% 30.10 in 10.0 mi NNW 3.5 mph - N/A   Mostly Cloudy
3:55 AM 6.8 °F -2.0 °F 1.4 °F 79% 30.09 in 10.0 mi NW 4.6 mph - N/A   Overcast
4:15 AM 5.0 °F -4.1 °F -0.4 °F 78% 30.09 in 10.0 mi NW 4.6 mph - N/A   Overcast
4:35 AM 5.0 °F -4.1 °F 1.4 °F 85% 30.09 in 10.0 mi NNW 4.6 mph - N/A   Mostly Cloudy
4:55 AM 5.0 °F -4.1 °F 1.4 °F 85% 30.09 in 10.0 mi NW 4.6 mph - N/A   Mostly Cloudy
5:15 AM 5.0 °F -4.1 °F 1.4 °F 85% 30.09 in 10.0 mi NW 4.6 mph - N/A   Overcast
5:35 AM 3.2 °F -6.2 °F 1.4 °F 92% 30.09 in 10.0 mi NW 4.6 mph - N/A   Overcast
5:55 AM 3.2 °F -7.8 °F 1.4 °F 92% 30.09 in 10.0 mi NNW 5.8 mph - N/A   Overcast
6:15 AM 3.2 °F -7.8 °F 1.4 °F 92% 30.09 in 10.0 mi NNW 5.8 mph - N/A   Overcast
6:35 AM 3.2 °F -6.2 °F -0.4 °F 85% 30.10 in 10.0 mi NW 4.6 mph - N/A   Overcast
6:55 AM 3.2 °F -7.8 °F -0.4 °F 85% 30.10 in 10.0 mi NNW 5.8 mph - N/A   Overcast
7:15 AM 3.2 °F -7.8 °F 1.4 °F 92% 30.10 in 10.0 mi NNW 5.8 mph - N/A   Mostly Cloudy
7:35 AM 3.2 °F -7.8 °F 1.4 °F 92% 30.10 in 10.0 mi NNW 5.8 mph - N/A   Mostly Cloudy
7:55 AM 5.0 °F -4.1 °F -0.4 °F 78% 30.11 in 10.0 mi NNW 4.6 mph - N/A   Mostly Cloudy
8:15 AM 6.8 °F -4.8 °F 1.4 °F 79% 30.11 in 10.0 mi NNW 6.9 mph - N/A   Overcast
8:35 AM 6.8 °F -4.8 °F 3.2 °F 85% 30.11 in 10.0 mi NNW 6.9 mph - N/A   Overcast
8:55 AM 8.6 °F -5.5 °F 3.2 °F 79% 30.11 in 10.0 mi NNW 10.4 mph - N/A   Overcast
9:15 AM 8.6 °F -6.3 °F 1.4 °F 73% 30.11 in 10.0 mi North 11.5 mph 17.3 mph N/A   Overcast
9:35 AM 10.4 °F -2.4 °F 3.2 °F 73% 30.11 in 10.0 mi North 9.2 mph - N/A   Overcast
9:55 AM 10.4 °F -3.3 °F 3.2 °F 73% 30.11 in 10.0 mi NNW 10.4 mph - N/A   Overcast
10:15 AM 12.2 °F -1.8 °F 1.4 °F 62% 30.11 in 10.0 mi North 11.5 mph - N/A   Overcast
10:35 AM 15.8 °F 4.2 °F 3.2 °F 58% 30.11 in 10.0 mi NNW 9.2 mph 16.1 mph N/A   Overcast
10:55 AM 15.8 °F 3.4 °F 1.4 °F 53% 30.11 in 10.0 mi North 10.4 mph 17.3 mph N/A   Overcast
11:15 AM 15.8 °F 4.2 °F -0.4 °F 49% 30.11 in 10.0 mi North 9.2 mph - N/A   Overcast
11:35 AM 15.8 °F 3.4 °F 1.4 °F 53% 30.11 in 10.0 mi North 10.4 mph - N/A   Mostly Cloudy
11:55 AM 15.8 °F 6.1 °F -0.4 °F 49% 30.10 in 10.0 mi NNW 6.9 mph - N/A   Partly Cloudy
12:15 PM 17.6 °F 6.4 °F 1.4 °F 49% 30.10 in 10.0 mi NNW 9.2 mph - N/A   Mostly Cloudy
12:35 PM 17.6 °F 9.3 °F -0.4 °F 45% 30.10 in 10.0 mi North 5.8 mph - N/A   Overcast
12:55 PM 17.6 °F - -0.4 °F 45% 30.10 in 10.0 mi Calm Calm - N/A   Overcast
1:15 PM 17.6 °F 7.3 °F 1.4 °F 49% 30.10 in 10.0 mi ENE 8.1 mph - N/A   Overcast
1:35 PM 17.6 °F 8.2 °F 1.4 °F 49% 30.09 in 10.0 mi NNW 6.9 mph - N/A   Overcast
1:55 PM 17.6 °F 9.3 °F -0.4 °F 45% 30.09 in 10.0 mi NW 5.8 mph - N/A   Overcast
2:15 PM 17.6 °F 10.7 °F -0.4 °F 45% 30.10 in 10.0 mi NNW 4.6 mph - N/A   Overcast
2:35 PM 17.6 °F - -0.4 °F 45% 30.10 in 10.0 mi Calm Calm - N/A   Mostly Cloudy
2:55 PM 17.6 °F 10.7 °F -0.4 °F 45% 30.10 in 10.0 mi North 4.6 mph - N/A   Overcast
3:15 PM 17.6 °F 8.2 °F -0.4 °F 45% 30.10 in 10.0 mi North 6.9 mph - N/A   Overcast
3:35 PM 17.6 °F 10.7 °F -0.4 °F 45% 30.10 in 10.0 mi North 4.6 mph - N/A   Overcast
3:55 PM 17.6 °F 9.3 °F -0.4 °F 45% 30.10 in 10.0 mi NNW 5.8 mph - N/A   Mostly Cloudy
4:15 PM 17.6 °F 9.3 °F -0.4 °F 45% 30.11 in 10.0 mi NNW 5.8 mph - N/A   Overcast
4:35 PM 17.6 °F 8.2 °F -0.4 °F 45% 30.11 in 10.0 mi NNW 6.9 mph - N/A   Overcast
4:55 PM 17.6 °F 10.7 °F -0.4 °F 45% 30.12 in 10.0 mi NW 4.6 mph - N/A   Overcast
5:15 PM 17.6 °F 12.3 °F -0.4 °F 45% 30.12 in 10.0 mi NW 3.5 mph - N/A   Overcast
5:35 PM 15.8 °F 7.2 °F -0.4 °F 49% 30.13 in 10.0 mi NNW 5.8 mph - N/A   Overcast
5:55 PM 15.8 °F 8.6 °F -0.4 °F 49% 30.13 in 10.0 mi NNW 4.6 mph - N/A   Partly Cloudy
6:15 PM 14.0 °F 3.9 °F 1.4 °F 57% 30.14 in 10.0 mi NNW 6.9 mph - N/A   Clear
6:35 PM 12.2 °F 2.9 °F -0.4 °F 57% 30.15 in 10.0 mi NNW 5.8 mph - N/A   Clear
6:55 PM 12.2 °F 4.3 °F -0.4 °F 57% 30.15 in 10.0 mi NNW 4.6 mph - N/A   Clear
7:15 PM 10.4 °F 2.2 °F -0.4 °F 62% 30.15 in 10.0 mi North 4.6 mph - N/A   Clear
7:35 PM 10.4 °F 0.8 °F -2.2 °F 57% 30.15 in 10.0 mi NNW 5.8 mph - N/A   Clear
7:55 PM 10.4 °F 4.0 °F -2.2 °F 57% 30.15 in 10.0 mi NNW 3.5 mph - N/A   Clear
8:15 PM 8.6 °F 2.0 °F -2.2 °F 62% 30.15 in 10.0 mi NNW 3.5 mph - N/A   Clear
8:35 PM 8.6 °F 2.0 °F -2.2 °F 62% 30.16 in 10.0 mi NNW 3.5 mph - N/A   Clear
8:55 PM 8.6 °F 0.1 °F -0.4 °F 67% 30.16 in 10.0 mi NNW 4.6 mph - N/A   Clear
9:15 PM 8.6 °F 0.1 °F -2.2 °F 62% 30.16 in 10.0 mi NNW 4.6 mph - N/A   Clear
9:35 PM 6.8 °F -2.0 °F -2.2 °F 67% 30.16 in 10.0 mi NNW 4.6 mph - N/A   Clear
9:55 PM 6.8 °F -3.5 °F -2.2 °F 67% 30.16 in 10.0 mi NNW 5.8 mph - N/A   Clear
10:15 PM 6.8 °F -2.0 °F -2.2 °F 67% 30.16 in 10.0 mi NNW 4.6 mph - N/A   Clear
10:35 PM 5.0 °F -2.1 °F -4.0 °F 66% 30.15 in 10.0 mi NNW 3.5 mph - N/A   Clear
10:55 PM 5.0 °F -4.1 °F -5.8 °F 61% 30.15 in 10.0 mi NNW 4.6 mph - N/A   Clear
11:15 PM 3.2 °F -4.2 °F -4.0 °F 72% 30.15 in 10.0 mi NNW 3.5 mph - N/A   Clear
11:35 PM -0.4 °F - -9.4 °F 66% 30.15 in 10.0 mi Calm Calm - N/A   Clear
11:55 PM -0.4 °F - -2.2 °F 92% 30.15 in 10.0 mi Calm Calm - N/A   Clear